Location: Deurze
(52.9838°N, 6.6090°E)
Time: 19:10:25
(UTC+00:00)

Cosmos 2369 Rocket - Pass Details

Date: 11 March 2026
Orbit: 829 x 850 km, 71.0° (Epoch: 20 April)

Event Time Altitude Azimuth Distance (km) Brightness Sun altitude
Rises 18:48:49 0° 172° (S) 3,401 5.2 -12.6°
Reaches altitude 10° 18:51:35 10° 160° (SSE) 2,469 4.3 -13.0°
Maximum altitude 18:56:16 27° 104° (ESE) 1,565 3.0 -13.7°
Drops below altitude 10° 19:00:58 10° 49° (NE) 2,474 4.3 -14.3°
Sets 19:03:43 0° 38° (NE) 3,410 5.1 -14.7°
